Location: Allos
(44.2333°N, 6.6333°E)
Time: 17:43:45
(UTC+00:00)

Cosmos 1933 - Pass Details

Date: 01 December 2020
Orbit: 546 x 564 km, 82.5° (Epoch: 23 January)

Event Time Altitude Azimuth Distance (km) Brightness Sun altitude
Rises 16:25:41 0° 173° (S) 2,718 7.1 -5.6°
Reaches altitude 10° 16:27:53 10° 167° (SSE) 1,832 6.2 -5.9°
Maximum altitude 16:31:46 48° 93° (E) 740 3.6 -6.5°
Drops below altitude 10° 16:35:42 10° 20° (NNE) 1,858 5.6 -7.2°
Sets 16:37:56 0° 14° (NNE) 2,761 6.5 -7.6°
